Regional Weather Roundup
Issued by NWS

Home | Current Version | Previous Version | Graphics & Text | Print | Product List | Glossary On
Versions: 1 2 3 4 5 6 7 8 9 10 11 12 13 14 15 16 17 18 19 20 21 22 23 24 25 26 27 28 29 30 31 32 33 34 35 36 37 38 39 40 41 42 43 44 45 46 47 48 49 50
000
ASUS43 KBIS 202120
RWRND

NORTH DAKOTA REGIONAL WEATHER ROUNDUP
NATIONAL WEATHER SERVICE BISMARCK ND
300 PM CST THU NOV 20 2014

NOTE: "FAIR" INDICATES FEW OR NO CLOUDS BELOW 12,000 FEET WITH NO
SIGNIFICANT WEATHER AND/OR OBSTRUCTIONS TO VISIBILITY.


NDZ001>003-009>011-017-202200-
NORTHWEST NORTH DAKOTA

CITY           SKY/WX    TMP DP  RH WIND       PRES   REMARKS
WILLISTON      SUNNY     22  12  65 S8        29.91F WCI  12
MINOT          SUNNY     21  10  62 S9        29.97F WCI  11
MINOT AFB      SUNNY     22  10  61 S12       29.97F WCI  10
$$

NDZ018>021-031>035-040>046-202200-
SOUTHWEST NORTH DAKOTA

CITY           SKY/WX    TMP DP  RH WIND       PRES   REMARKS
BISMARCK       SUNNY     22  10  60 S9        30.05F WCI  12
DICKINSON      MOSUNNY   23  18  81 S14       29.89F WCI  11
GARRISON         N/A     20  10  65 S14       29.97F WCI   7
HETTINGER ARPT MOSUNNY   25  19  78 S8        29.94F WCI  16
$$

NDZ004>008-012>016-024-026-027-054-202200-
NORTHEAST NORTH DAKOTA

CITY           SKY/WX    TMP DP  RH WIND       PRES   REMARKS
GRAND FORKS    MOSUNNY   20   2  45 VRB5      30.12F WCI  13
GRND FRKS AFB  SUNNY     21   1  42 W6        30.11F WCI  14
DEVILS LAKE    SUNNY     19   3  49 SW10      30.04S WCI   8
$$

NDZ022-023-025-028>030-036>039-047>053-202200-
SOUTHEAST NORTH DAKOTA

CITY           SKY/WX    TMP DP  RH WIND       PRES   REMARKS
FARGO          SUNNY     22   3  44 W5        30.15S WCI  16
JAMESTOWN      SUNNY     20   6  55 SW6       30.07F WCI  12
$$



USA.gov is the U.S. government's official web portal to all federal, state and local government web resources and services.